period_start,C,m1,H,J0,J1,J2,J3,J4,J5,JA,JB,JC,JD,JJ,JK,JN,#
2015-12-01 00:02:04,0.32,8.37,0.00,17.04,21.44,25.39,15.04,52.59,1019.06,2052.97,1536.21,1642.75,1831.96,600.21,609.92,33.59,0000 0000 0000 0000 000000
2015-12-01 00:07:05,0.24,8.38,0.00,17.05,21.44,25.39,15.00,52.47,1019.07,2052.98,1534.56,1641.34,1830.37,600.03,609.75,33.64,0000 0000 0000 0000 000000
2015-12-01 00:12:07,0.29,8.40,0.00,17.07,21.45,25.45,14.97,52.52,1019.07,2052.97,1532.76,1639.82,1828.67,599.85,609.49,33.69,0000 0000 0000 0000 000000
2015-12-01 00:17:08,0.26,8.41,0.00,17.07,21.47,25.48,14.97,52.46,1019.07,2052.94,1530.91,1638.37,1826.99,599.89,609.58,33.74,0000 0000 0000 0000 000000
2015-12-01 00:22:09,0.28,8.43,0.00,17.09,21.47,25.48,14.99,52.45,1019.07,2052.87,1529.01,1636.76,1825.27,600.10,609.85,33.79,0000 0000 0000 0000 000000
2015-12-01 00:27:10,0.30,8.44,0.00,17.09,21.47,25.48,15.03,52.58,1019.07,2052.88,1527.10,1635.26,1823.56,599.91,609.58,33.84,0000 0000 0000 0000 000000
2015-12-01 00:32:12,0.28,8.45,0.00,17.10,21.48,25.50,15.07,52.58,1019.06,2052.84,1525.16,1633.68,1821.78,600.13,609.57,33.89,0000 0000 0000 0000 000000
2015-12-01 00:37:13,0.27,8.47,0.00,17.11,21.49,25.50,14.98,52.57,1019.05,2052.76,1523.19,1632.17,1820.06,599.80,609.50,33.94,0000 0000 0000 0000 000000
2015-12-01 00:42:14,0.30,8.48,0.00,17.11,21.49,25.52,15.01,52.54,1019.05,2052.60,1521.21,1630.56,1818.27,599.90,609.51,33.99,0000 0000 0000 0000 000000
2015-12-01 00:47:15,0.27,8.50,0.00,17.12,21.50,25.54,14.95,52.53,1019.05,2052.43,1519.16,1628.91,1816.48,599.96,609.52,34.04,0000 0000 0000 0000 000000
2015-12-01 00:52:16,0.32,8.51,0.00,17.12,21.51,25.53,14.98,52.54,1019.06,2052.40,1517.09,1627.28,1814.65,600.07,609.57,34.09,0000 0000 0000 0000 000000
2015-12-01 00:57:17,0.24,8.53,0.00,17.13,21.52,25.53,15.03,52.65,1019.06,2052.19,1515.24,1625.71,1812.87,599.44,608.96,34.14,0000 0000 0000 0000 000000
2015-12-01 01:02:19,0.32,8.54,0.00,17.15,21.52,25.53,14.98,52.63,1019.02,2052.28,1513.30,1624.20,1811.15,600.01,609.49,34.19,0000 0000 0000 0000 000000
2015-12-01 01:07:20,0.32,8.56,0.00,17.17,21.52,25.51,15.00,52.59,1019.04,2052.38,1511.35,1622.66,1809.45,600.11,609.43,34.24,0000 0000 0000 0000 000000
2015-12-01 01:12:21,0.27,8.57,0.00,17.17,21.54,25.50,15.02,52.59,1018.98,2052.31,1509.36,1621.10,1807.76,600.00,609.43,34.29,0000 0000 0000 0000 000000
2015-12-01 01:17:23,0.29,8.59,0.00,17.17,21.54,25.55,15.06,52.52,1019.05,2052.27,1507.51,1619.59,1806.03,600.17,609.51,34.34,0000 0000 0000 0000 000000
2015-12-01 01:22:24,0.23,8.60,0.00,17.18,21.54,25.59,15.01,52.58,1019.06,2052.16,1505.90,1618.16,1804.45,599.94,609.25,34.40,0000 0000 0000 0000 000000
2015-12-01 01:27:25,0.27,8.61,0.00,17.19,21.56,25.57,15.02,52.50,1019.04,2052.04,1504.16,1616.69,1802.74,599.72,609.10,34.45,0000 0000 0000 0000 000000
2015-12-01 01:32:27,0.29,8.63,0.00,17.22,21.57,25.53,14.99,52.53,1019.03,2052.03,1502.15,1615.22,1801.02,599.90,609.29,34.50,0000 0000 0000 0000 000000
2015-12-01 01:37:28,0.28,8.64,0.00,17.22,21.57,25.55,15.00,52.62,1019.03,2052.03,1500.38,1613.70,1799.43,600.02,609.37,34.55,0000 0000 0000 0000 000000
2015-12-01 01:42:29,0.29,8.66,0.00,17.24,21.58,25.58,14.98,52.53,1019.03,2052.03,1498.36,1612.19,1797.68,600.06,609.39,34.60,0000 0000 0000 0000 000000
2015-12-01 01:47:30,0.29,8.67,0.00,17.24,21.59,25.59,14.98,52.47,1018.99,2052.02,1496.51,1610.65,1796.02,600.09,609.29,34.65,0000 0000 0000 0000 000000
2015-12-01 01:52:32,0.27,8.69,0.00,17.25,21.59,25.54,15.02,52.54,1019.00,2052.01,1494.80,1609.26,1794.37,600.31,609.52,34.70,0000 0000 0000 0000 000000
2015-12-01 01:57:33,0.32,8.70,0.00,17.27,21.60,25.56,15.01,52.70,1019.00,2052.01,1492.77,1607.69,1792.65,599.90,609.13,34.75,0000 0000 0000 0000 000000
2015-12-01 02:02:34,0.27,8.72,0.00,17.27,21.62,25.59,14.98,52.61,1018.96,2052.01,1490.86,1606.20,1791.07,599.91,608.97,34.80,0000 0000 0000 0000 000000
2015-12-01 02:07:36,0.29,8.73,0.00,17.29,21.62,25.63,15.00,52.54,1019.02,2052.01,1489.02,1604.68,1789.47,600.26,609.33,34.85,0000 0000 0000 0000 000000
2015-12-01 02:12:37,0.28,8.74,0.00,17.31,21.62,25.66,15.00,52.60,1019.02,2052.00,1487.18,1603.20,1787.77,599.92,609.03,34.90,0000 0000 0000 0000 000000
2015-12-01 02:17:39,0.29,8.76,0.00,17.32,21.64,25.65,15.07,52.62,1018.76,2052.00,1485.29,1601.71,1786.10,600.56,609.58,34.95,0000 0000 0000 0000 000000
2015-12-01 02:22:40,0.32,8.78,0.00,17.34,21.64,25.63,14.95,52.49,1018.60,2052.00,1483.30,1600.17,1784.37,600.06,608.99,35.00,0000 0000 0000 0000 000000
2015-12-01 02:27:41,0.27,8.79,0.00,17.34,21.66,25.61,14.97,52.51,1018.57,2052.00,1481.43,1598.73,1782.66,600.23,609.02,35.05,0000 0000 0000 0000 000000
2015-12-01 02:32:42,0.27,8.81,0.00,17.34,21.67,25.64,14.92,52.48,1018.61,2052.00,1479.75,1597.38,1781.04,599.62,608.46,35.10,0000 0000 0000 0000 000000
2015-12-01 02:37:43,0.28,8.82,0.00,17.37,21.68,25.65,14.99,52.52,1018.64,2052.00,1477.85,1595.99,1779.45,600.09,608.83,35.15,0000 0000 0000 0000 000000
2015-12-01 02:42:45,0.30,8.84,0.00,17.38,21.69,25.64,15.09,52.58,1018.65,2052.00,1475.97,1594.54,1777.74,600.33,609.13,35.20,0000 0000 0000 0000 000000
2015-12-01 02:47:46,0.26,8.85,0.00,17.40,21.70,25.66,15.01,52.52,1018.65,2052.00,1474.18,1593.09,1776.16,599.99,608.67,35.26,0000 0000 0000 0000 000000
2015-12-01 02:52:47,0.29,8.86,0.00,17.42,21.72,25.68,14.92,52.54,1018.59,2052.00,1472.48,1591.72,1774.60,599.55,608.26,35.31,0000 0000 0000 0000 000000
2015-12-01 02:57:49,0.24,8.88,0.00,17.42,21.72,25.64,14.97,52.48,1018.57,2051.98,1471.01,1590.40,1773.04,600.43,609.10,35.36,0000 0000 0000 0000 000000
2015-12-01 03:02:50,0.26,8.89,0.00,17.44,21.74,25.69,14.94,52.49,1018.57,2051.98,1469.39,1588.98,1771.54,600.22,608.76,35.41,0000 0000 0000 0000 000000
2015-12-01 03:07:51,0.28,8.90,0.00,17.46,21.75,25.70,15.00,52.53,1018.57,2051.98,1467.71,1587.63,1769.98,599.90,608.47,35.46,0000 0000 0000 0000 000000
2015-12-01 03:12:52,0.25,8.92,0.00,17.47,21.77,25.74,14.99,52.48,1018.57,2051.96,1466.04,1586.29,1768.50,600.36,608.95,35.51,0000 0000 0000 0000 000000
2015-12-01 03:17:54,0.24,8.93,0.00,17.49,21.77,25.71,15.00,52.48,1018.57,2051.93,1464.55,1584.98,1766.98,600.16,608.59,35.56,0000 0000 0000 0000 000000
2015-12-01 03:22:55,0.28,8.94,0.00,17.51,21.79,25.71,14.93,52.60,1018.57,2051.89,1462.89,1583.67,1765.55,600.19,608.67,35.61,0000 0000 0000 0000 000000
2015-12-01 03:27:56,0.20,8.96,0.00,17.53,21.80,25.72,15.00,52.59,1018.57,2051.61,1461.25,1582.35,1764.00,600.29,608.81,35.66,0000 0000 0000 0000 000000
2015-12-01 03:32:57,0.22,8.97,0.00,17.54,21.82,25.78,14.95,52.51,1018.57,2051.37,1459.69,1580.98,1762.55,599.85,608.24,35.71,0000 0000 0000 0000 000000
2015-12-01 03:37:58,0.24,8.98,0.00,17.57,21.84,25.78,14.90,52.52,1018.57,2051.13,1458.06,1579.67,1761.01,599.38,607.75,35.76,0000 0000 0000 0000 000000
2015-12-01 03:42:59,0.25,8.99,0.00,17.59,21.85,25.76,14.91,52.58,1018.57,2051.05,1456.55,1578.41,1759.63,599.63,608.16,35.81,0000 0000 0000 0000 000000
2015-12-01 03:48:01,0.19,9.00,0.00,17.62,21.87,25.84,14.99,52.62,1018.57,2051.01,1455.26,1577.17,1758.13,599.81,608.22,35.86,0000 0000 0000 0000 000000
2015-12-01 03:53:02,0.27,9.01,0.00,17.63,21.88,25.80,14.94,52.56,1018.58,2051.00,1453.68,1575.90,1756.73,599.70,607.96,35.91,0000 0000 0000 0000 000000
2015-12-01 03:58:03,0.25,9.03,0.00,17.66,21.89,25.79,14.99,52.53,1018.58,2051.00,1452.08,1574.60,1755.32,600.05,608.19,35.96,0000 0000 0000 0000 000000
2015-12-01 04:03:05,0.26,9.04,0.00,17.68,21.91,25.80,14.96,52.55,1018.61,2051.00,1450.47,1573.42,1753.85,600.21,608.19,36.01,0000 0000 0000 0000 000000
2015-12-01 04:08:06,0.24,9.05,0.00,17.70,21.92,25.84,14.86,52.48,1018.61,2051.00,1448.86,1572.16,1752.53,599.93,608.05,36.06,0000 0000 0000 0000 000000
2015-12-01 04:13:07,0.23,9.07,0.00,17.72,21.94,25.87,14.94,52.54,1018.64,2051.00,1447.41,1570.90,1751.12,599.82,607.87,36.11,0000 0000 0000 0000 000000
2015-12-01 04:18:08,0.29,9.08,0.00,17.74,21.95,25.91,14.94,52.40,1018.62,2050.99,1445.76,1569.63,1749.70,600.17,608.16,36.16,0000 0000 0000 0000 000000
2015-12-01 04:23:10,0.22,9.09,0.00,17.75,21.97,25.88,14.93,52.56,1018.61,2050.98,1444.33,1568.42,1748.31,599.76,607.55,36.21,0000 0000 0000 0000 000000
2015-12-01 04:28:11,0.25,9.11,0.00,17.77,21.98,25.84,14.94,52.57,1018.63,2050.98,1442.79,1567.19,1746.90,600.30,608.20,36.27,0000 0000 0000 0000 000000
2015-12-01 04:33:12,0.22,9.12,0.00,17.78,22.00,25.92,14.94,52.64,1018.63,2050.97,1441.43,1565.95,1745.57,600.04,607.98,36.32,0000 0000 0000 0000 000000
2015-12-01 04:38:14,0.24,9.13,0.00,17.79,22.02,25.86,14.98,52.53,1018.69,2050.94,1439.93,1564.75,1744.23,600.46,608.30,36.37,0000 0000 0000 0000 000000
2015-12-01 04:43:15,0.25,9.14,0.00,17.81,22.03,25.93,14.93,52.40,1018.74,2050.91,1438.46,1563.52,1742.84,600.15,608.11,36.42,0000 0000 0000 0000 000000
2015-12-01 04:48:17,0.19,9.15,0.00,17.82,22.04,25.95,14.99,52.61,1018.73,2050.75,1436.92,1562.37,1741.52,600.21,608.15,36.47,0000 0000 0000 0000 000000
2015-12-01 04:53:18,0.20,9.16,0.00,17.84,22.07,25.97,14.94,52.29,1018.72,2050.50,1435.53,1561.15,1740.15,599.94,607.78,36.52,0000 0000 0000 0000 000000
2015-12-01 04:58:19,0.20,9.17,0.00,17.86,22.08,25.97,14.89,52.40,1018.74,2050.13,1433.99,1559.94,1738.77,599.68,607.54,36.57,0000 0000 0000 0000 000000
2015-12-01 05:03:20,0.25,9.18,0.00,17.88,22.09,25.95,14.96,52.53,1018.82,2050.13,1432.58,1558.76,1737.53,599.73,607.46,36.62,0000 0000 0000 0000 000000
2015-12-01 05:08:21,0.21,9.20,0.00,17.89,22.12,26.02,14.89,52.52,1018.76,2050.06,1431.23,1557.62,1736.21,599.55,607.36,36.67,0000 0000 0000 0000 000000
2015-12-01 05:13:23,0.23,9.21,0.00,17.92,22.13,26.00,14.95,52.50,1018.62,2050.06,1429.81,1556.52,1734.89,599.95,607.66,36.72,0000 0000 0000 0000 000000
2015-12-01 05:18:24,0.23,9.22,0.00,17.93,22.14,26.04,14.93,52.43,1018.63,2050.01,1428.44,1555.37,1733.61,599.77,607.39,36.77,0000 0000 0000 0000 000000
2015-12-01 05:23:26,0.22,9.23,0.00,17.95,22.17,26.12,14.96,52.52,1018.64,2050.01,1426.97,1554.25,1732.40,599.93,607.56,36.82,0000 0000 0000 0000 000000
2015-12-01 05:28:27,0.23,9.24,0.00,17.97,22.18,26.09,14.92,52.47,1018.74,2050.00,1425.61,1553.10,1731.12,600.06,607.67,36.87,0000 0000 0000 0000 000000
2015-12-01 05:33:28,0.24,9.26,0.00,17.98,22.19,26.14,14.90,52.48,1018.71,2050.00,1424.15,1551.90,1729.83,599.92,607.56,36.92,0000 0000 0000 0000 000000
2015-12-01 05:38:30,0.28,9.27,0.00,17.99,22.21,26.13,14.97,52.41,1018.83,2050.00,1422.64,1550.53,1728.40,600.10,607.69,36.97,0000 0000 0000 0000 000000
2015-12-01 05:43:31,0.20,9.28,0.00,18.01,22.22,26.12,14.95,52.52,1018.71,2050.00,1421.33,1549.40,1727.23,600.32,607.88,37.02,0000 0000 0000 0000 000000
2015-12-01 05:48:32,0.21,9.29,0.00,18.03,22.24,26.13,14.89,52.51,1018.59,2050.00,1419.93,1548.32,1726.05,599.98,607.36,37.07,0000 0000 0000 0000 000000
2015-12-01 05:53:33,0.23,9.31,0.00,18.04,22.26,26.18,14.93,52.48,1018.57,2049.97,1418.61,1547.16,1724.77,600.21,607.56,37.12,0000 0000 0000 0000 000000
2015-12-01 05:58:34,0.21,9.31,0.00,18.06,22.28,26.18,14.95,52.56,1018.57,2049.97,1417.31,1546.07,1723.59,600.01,607.36,37.17,0000 0000 0000 0000 000000
2015-12-01 06:03:36,0.21,9.33,0.00,18.08,22.29,26.22,14.88,52.54,1018.57,2049.92,1415.90,1544.96,1722.37,599.85,607.18,37.23,0000 0000 0000 0000 000000
2015-12-01 06:08:37,0.18,9.34,0.00,18.10,22.31,26.16,14.95,52.57,1018.57,2049.85,1414.74,1544.06,1721.25,600.09,607.32,37.28,0000 0000 0000 0000 000000
2015-12-01 06:13:39,0.29,9.35,0.00,17.66,22.32,26.17,14.96,51.96,1018.57,2049.86,1413.14,1542.77,1719.77,600.01,608.15,37.33,0000 0000 0000 0000 000000
2015-12-01 06:18:40,0.25,9.36,0.00,16.81,22.31,25.56,15.08,52.15,1018.55,2049.94,1411.70,1541.58,1718.40,600.05,609.93,37.38,0000 0000 0000 0000 000000
2015-12-01 06:23:41,0.56,9.39,0.00,16.72,22.28,25.00,15.01,52.76,1018.41,2049.97,1409.08,1538.70,1715.42,600.05,609.98,37.43,0000 0000 0000 0000 000000
2015-12-01 06:28:42,0.23,9.40,0.00,16.88,22.22,24.52,15.00,52.75,1018.21,2049.99,1407.61,1537.49,1714.10,600.24,609.87,37.48,0000 0000 0000 0000 000000
2015-12-01 06:33:44,0.19,9.41,0.00,16.95,22.14,24.19,14.97,52.59,1018.15,2050.03,1406.39,1536.58,1712.98,600.31,609.79,37.53,0000 0000 0000 0000 000000
2015-12-01 06:38:45,0.29,9.43,0.00,16.92,22.05,24.05,14.92,52.58,1018.13,2050.69,1405.14,1535.76,1712.05,599.92,609.49,37.58,0000 0000 0000 0000 000000
2015-12-01 06:43:46,0.17,9.44,0.00,16.98,21.96,23.91,14.93,52.01,1018.11,2050.98,1404.04,1535.00,1711.02,600.44,609.67,37.63,0000 0000 0000 0000 000000
2015-12-01 06:48:47,0.18,9.45,0.00,17.06,21.88,23.91,14.91,52.03,1018.12,2051.00,1403.06,1534.20,1710.09,600.28,609.44,37.68,0000 0000 0000 0000 000000
2015-12-01 06:53:48,0.23,9.46,0.00,17.10,21.80,24.18,14.93,52.14,1018.15,2051.34,1402.12,1533.62,1709.34,600.16,609.27,37.73,0000 0000 0000 0000 000000
2015-12-01 06:58:50,0.19,9.47,0.00,17.14,21.74,24.14,14.87,52.16,1018.15,2051.93,1401.15,1532.94,1708.59,600.22,609.31,37.78,0000 0000 0000 0000 000000
2015-12-01 07:03:51,0.16,9.48,0.00,17.21,21.67,24.15,14.92,52.13,1018.14,2051.99,1400.21,1532.10,1707.84,599.70,608.51,37.83,0000 0000 0000 0000 000000
2015-12-01 07:08:52,0.22,9.49,0.00,17.26,21.61,24.07,14.79,52.63,1018.19,2052.03,1399.13,1531.25,1706.69,599.14,607.80,37.88,0000 0000 0000 0000 000000
2015-12-01 07:13:53,0.36,9.50,0.00,17.30,21.55,24.18,14.92,52.78,1018.10,2052.45,1397.24,1530.05,1705.44,600.05,608.72,37.93,0000 0000 0000 0000 000000
2015-12-01 07:18:55,0.32,9.52,0.00,17.43,21.49,24.53,14.95,52.87,1018.08,2052.96,1395.46,1528.87,1704.28,599.88,608.18,37.98,0000 0000 0000 0000 000000
2015-12-01 07:23:56,0.17,9.54,0.00,17.57,21.45,24.64,14.94,52.76,1018.09,2052.99,1394.14,1527.95,1703.08,600.27,608.31,38.04,0000 0000 0000 0000 000000
2015-12-01 07:28:57,0.20,9.55,0.00,17.75,21.42,24.54,14.93,52.69,1018.08,2052.99,1392.96,1527.00,1702.04,600.26,607.94,38.09,0000 0000 0000 0000 000000
2015-12-01 07:33:59,0.19,9.56,0.00,17.89,21.40,24.50,14.93,52.70,1018.09,2052.99,1391.92,1526.10,1701.05,600.12,607.43,38.14,0000 0000 0000 0000 000000
2015-12-01 07:39:00,0.20,9.56,0.00,18.01,21.40,24.55,14.86,52.63,1018.09,2052.99,1390.85,1525.26,1700.06,599.90,606.97,38.19,0000 0000 0000 0000 000000
2015-12-01 07:44:01,0.20,9.57,0.00,18.17,21.42,24.72,14.83,52.52,1018.09,2052.99,1389.74,1524.30,1699.04,599.93,606.77,38.24,0000 0000 0000 0000 000000
2015-12-01 07:49:02,0.21,9.58,0.00,18.35,21.44,24.88,14.75,52.57,1018.10,2052.99,1388.51,1523.32,1697.93,599.47,605.87,38.29,0000 0000 0000 0000 000000
2015-12-01 07:54:04,0.22,9.60,0.00,18.48,21.47,25.00,14.73,52.52,1018.12,2052.99,1387.28,1522.23,1696.77,599.72,605.96,38.34,0000 0000 0000 0000 000000
2015-12-01 07:59:05,0.20,9.61,0.00,18.65,21.51,25.04,14.78,52.56,1018.13,2052.99,1386.04,1521.24,1695.64,600.07,605.95,38.39,0000 0000 0000 0000 000000
2015-12-01 08:04:07,0.22,9.62,0.00,18.81,21.56,25.14,14.77,52.59,1018.17,2052.98,1384.86,1520.22,1694.45,599.67,605.16,38.44,0000 0000 0000 0000 000000
2015-12-01 08:09:08,0.23,9.63,0.00,18.94,21.62,25.26,14.76,52.54,1018.33,2052.96,1383.56,1519.12,1693.22,599.94,605.23,38.49,0000 0000 0000 0000 000000
2015-12-01 08:14:09,0.17,9.64,0.00,19.06,21.68,25.43,14.78,52.54,1018.50,2052.72,1382.25,1517.93,1691.96,600.33,605.52,38.54,0000 0000 0000 0000 000000
2015-12-01 08:19:11,0.15,9.65,0.00,19.14,21.74,25.50,14.76,52.53,1018.57,2052.13,1380.94,1516.85,1690.74,599.62,604.77,38.59,0000 0000 0000 0000 000000
2015-12-01 08:24:12,0.23,9.66,0.00,19.24,21.81,25.55,14.79,52.49,1018.57,2052.02,1379.77,1515.78,1689.55,600.30,605.19,38.64,0000 0000 0000 0000 000000
2015-12-01 08:29:13,0.22,9.67,0.00,19.31,21.89,25.70,14.73,52.46,1018.57,2052.00,1378.59,1514.72,1688.37,599.90,604.60,38.69,0000 0000 0000 0000 000000
2015-12-01 08:34:14,0.20,9.68,0.00,19.38,21.97,25.81,14.76,52.44,1018.57,2051.96,1377.40,1513.69,1687.24,600.03,604.69,38.74,0000 0000 0000 0000 000000
2015-12-01 08:39:16,0.08,9.68,0.00,19.45,22.05,25.87,14.70,52.37,1018.58,2051.23,1376.27,1512.60,1686.00,600.09,604.65,38.79,0000 0000 0000 0000 000000
2015-12-01 08:44:16,0.22,9.69,0.00,19.51,22.13,26.00,14.76,52.39,1018.69,2051.01,1374.95,1511.51,1684.78,600.15,604.54,38.84,0000 0000 0000 0000 000000
2015-12-01 08:49:18,0.26,9.71,0.00,19.59,22.22,26.09,14.78,52.27,1018.88,2050.99,1373.59,1510.37,1683.53,600.07,604.47,38.89,0000 0000 0000 0000 000000
2015-12-01 08:54:19,0.12,9.72,0.00,19.65,22.30,26.24,14.79,52.27,1019.02,2050.57,1372.35,1509.14,1682.17,599.86,604.18,38.94,0000 0000 0000 0000 000000
2015-12-01 08:59:21,0.16,9.72,0.00,19.71,22.39,26.29,14.75,52.08,1019.04,2050.03,1371.17,1508.08,1680.99,599.68,603.99,38.99,0000 0000 0000 0000 000000
2015-12-01 09:04:22,0.22,9.73,0.00,19.75,22.48,26.39,14.77,52.27,1019.06,2049.98,1369.95,1507.02,1679.77,599.95,604.03,39.05,0000 0000 0000 0000 000000
2015-12-01 09:09:23,0.16,9.74,0.00,19.80,22.57,26.52,14.69,52.14,1019.06,2049.58,1368.70,1505.88,1678.53,600.02,604.00,39.10,0000 0000 0000 0000 000000
2015-12-01 09:14:24,0.16,9.75,0.00,19.85,22.66,26.66,14.74,52.29,1019.06,2049.03,1367.53,1504.84,1677.35,599.94,603.92,39.15,0000 0000 0000 0000 000000
2015-12-01 09:19:25,0.20,9.76,0.00,19.88,22.75,26.73,14.82,52.34,1019.06,2048.99,1366.42,1503.82,1676.19,600.16,604.04,39.20,0000 0000 0000 0000 000000
2015-12-01 09:24:26,0.13,9.77,0.00,19.89,22.83,26.84,14.79,52.30,1019.06,2048.52,1365.24,1502.67,1675.00,599.67,603.45,39.25,0000 0000 0000 0000 000000
2015-12-01 09:29:27,0.18,9.78,0.00,19.91,22.92,26.95,14.75,52.33,1019.06,2048.05,1364.05,1501.60,1673.83,600.04,603.80,39.30,0000 0000 0000 0000 000000
2015-12-01 09:34:29,0.21,9.79,0.00,19.97,23.00,27.06,14.75,52.38,1019.06,2047.99,1362.92,1500.60,1672.73,599.94,603.66,39.35,0000 0000 0000 0000 000000
2015-12-01 09:39:30,0.10,9.80,0.00,20.03,23.09,27.10,14.69,52.27,1019.06,2047.43,1361.82,1499.59,1671.62,599.91,603.43,39.40,0000 0000 0000 0000 000000
2015-12-01 09:44:32,0.19,9.80,0.00,20.06,23.17,27.19,14.77,52.30,1019.06,2047.01,1360.73,1498.57,1670.47,600.19,603.67,39.45,0000 0000 0000 0000 000000
2015-12-01 09:49:33,0.19,9.81,0.00,20.10,23.25,27.27,14.75,52.30,1019.06,2047.00,1359.71,1497.62,1669.39,599.97,603.40,39.50,0000 0000 0000 0000 000000
2015-12-01 09:54:34,0.21,9.82,0.00,20.15,23.33,27.37,14.74,52.23,1019.06,2047.00,1358.59,1496.63,1668.35,599.83,603.17,39.55,0000 0000 0000 0000 000000
2015-12-01 09:59:35,0.16,9.83,0.00,20.21,23.40,27.37,14.76,52.21,1019.06,2046.83,1357.52,1495.65,1667.22,600.02,603.08,39.60,0000 0000 0000 0000 000000
2015-12-01 10:04:37,0.12,9.84,0.00,20.28,23.48,27.51,14.77,52.38,1019.06,2046.14,1356.27,1494.52,1666.01,600.26,603.28,39.65,0000 0000 0000 0000 000000
2015-12-01 10:09:38,0.17,9.85,0.00,20.30,23.55,27.57,14.80,52.43,1019.06,2046.00,1355.28,1493.64,1664.92,600.05,602.98,39.70,0000 0000 0000 0000 000000
2015-12-01 10:14:40,0.18,9.86,0.00,20.34,23.62,27.61,14.79,52.33,1019.06,2045.97,1354.14,1492.65,1663.88,599.97,602.85,39.75,0000 0000 0000 0000 000000
2015-12-01 10:19:41,0.10,9.87,0.00,20.38,23.69,27.66,14.80,52.17,1019.06,2045.58,1353.12,1491.72,1662.90,600.12,602.91,39.80,0000 0000 0000 0000 000000
2015-12-01 10:24:42,0.15,9.87,0.00,20.43,23.76,27.70,14.78,51.97,1019.06,2045.04,1352.04,1490.73,1661.84,600.03,602.79,39.85,0000 0000 0000 0000 000000
2015-12-01 10:29:44,0.19,9.88,0.00,20.44,23.83,27.75,14.76,52.02,1019.06,2044.99,1351.01,1489.77,1660.75,599.78,602.46,39.91,0000 0000 0000 0000 000000
2015-12-01 10:34:45,0.15,9.89,0.00,20.49,23.90,27.79,14.76,52.13,1019.05,2044.81,1349.97,1488.87,1659.76,600.06,602.49,39.96,0000 0000 0000 0000 000000
2015-12-01 10:39:47,0.19,9.90,0.00,20.53,23.97,27.86,14.84,52.18,1019.05,2044.08,1348.47,1487.76,1658.43,600.08,602.65,40.01,0000 0000 0000 0000 000000
2015-12-01 10:44:48,0.18,9.91,0.00,20.59,24.03,27.88,14.82,52.17,1019.04,2044.00,1347.45,1486.82,1657.42,600.15,602.49,40.06,0000 0000 0000 0000 000000
2015-12-01 10:49:50,0.17,9.92,0.00,20.59,24.09,27.95,14.76,52.22,1019.04,2043.99,1346.49,1485.94,1656.40,600.05,602.41,40.11,0000 0000 0000 0000 000000
2015-12-01 10:54:51,0.15,9.93,0.00,20.64,24.16,27.99,14.75,52.30,1019.05,2043.80,1345.40,1485.03,1655.45,600.00,602.25,40.16,0000 0000 0000 0000 000000
2015-12-01 10:59:52,0.09,9.93,0.00,20.65,24.22,28.07,14.74,52.36,1019.04,2043.10,1344.39,1484.08,1654.38,599.98,602.30,40.21,0000 0000 0000 0000 000000
2015-12-01 11:04:54,0.19,9.94,0.00,20.69,24.28,28.08,14.74,52.33,1019.05,2043.00,1343.37,1483.16,1653.35,600.02,602.19,40.26,0000 0000 0000 0000 000000
2015-12-01 11:09:55,0.19,9.95,0.00,20.62,24.34,28.09,14.75,52.36,1019.03,2042.99,1342.52,1482.25,1652.34,600.21,602.42,40.31,0000 0000 0000 0000 000000
2015-12-01 11:14:56,0.12,9.96,0.00,20.55,24.39,28.13,14.72,52.33,1018.99,2042.72,1341.56,1481.41,1651.43,599.70,602.10,40.36,0000 0000 0000 0000 000000
2015-12-01 11:19:58,0.13,9.96,0.00,20.62,24.45,28.10,14.83,52.38,1018.83,2042.17,1340.56,1480.55,1650.42,600.14,602.32,40.41,0000 0000 0000 0000 000000
2015-12-01 11:24:59,0.19,9.97,0.00,20.67,24.50,28.19,14.74,52.22,1018.66,2042.01,1339.48,1479.52,1649.31,599.83,601.99,40.46,0000 0000 0000 0000 000000
2015-12-01 11:30:00,0.16,9.98,0.00,20.65,24.55,28.19,14.78,52.25,1018.66,2042.00,1338.58,1478.74,1648.41,600.26,602.22,40.51,0000 0000 0000 0000 000000
2015-12-01 11:35:02,0.16,9.99,0.00,20.61,24.60,28.24,14.82,52.20,1018.60,2041.97,1337.64,1477.90,1647.56,600.07,602.15,40.56,0000 0000 0000 0000 000000
2015-12-01 11:40:03,0.12,10.00,0.00,20.62,24.65,28.33,14.85,52.39,1018.58,2041.71,1336.69,1477.05,1646.62,600.48,602.54,40.61,0000 0000 0000 0000 000000
2015-12-01 11:45:04,0.08,10.00,0.00,20.70,24.70,28.33,14.74,52.29,1018.59,2041.15,1335.83,1476.24,1645.73,599.79,601.61,40.66,0000 0000 0000 0000 000000
2015-12-01 11:50:05,0.17,10.01,0.00,20.76,24.74,28.35,14.76,52.33,1018.62,2041.03,1334.86,1475.42,1644.83,599.96,601.71,40.71,0000 0000 0000 0000 000000
2015-12-01 11:55:07,0.14,10.02,0.00,20.73,24.79,28.40,14.66,52.23,1018.62,2041.00,1334.00,1474.71,1643.94,599.52,601.33,40.76,0000 0000 0000 0000 000000
2015-12-01 12:00:08,0.17,10.03,0.00,20.70,24.83,28.43,14.73,52.28,1018.60,2040.97,1333.08,1473.88,1643.00,600.24,602.04,40.82,0000 0000 0000 0000 000000
2015-12-01 12:05:10,0.15,10.04,0.00,20.75,24.87,28.48,14.75,52.16,1018.66,2040.78,1332.14,1473.02,1642.05,600.06,601.72,40.87,0000 0000 0000 0000 000000
2015-12-01 12:10:11,0.10,10.04,0.00,20.78,24.91,28.50,14.76,52.17,1018.81,2040.15,1331.30,1472.17,1641.17,599.91,601.77,40.92,0000 0000 0000 0000 000000
2015-12-01 12:15:13,0.17,10.04,0.00,20.78,24.96,28.51,14.78,52.13,1018.89,2040.01,1330.40,1471.56,1640.39,600.26,602.08,40.97,0000 0000 0000 0000 000000
2015-12-01 12:20:14,0.13,10.05,0.00,20.80,24.99,28.54,14.74,52.08,1018.81,2040.00,1329.55,1470.92,1639.50,600.11,601.72,41.02,0000 0000 0000 0000 000000
2015-12-01 12:25:15,0.16,10.06,0.00,20.83,25.02,28.60,14.68,52.07,1018.77,2040.00,1328.68,1470.09,1638.69,599.69,601.42,41.07,0000 0000 0000 0000 000000
2015-12-01 12:30:16,0.13,10.07,0.00,20.83,25.06,28.64,14.74,52.07,1018.69,2039.99,1327.88,1469.32,1637.88,599.74,601.42,41.12,0000 0000 0000 0000 000000
2015-12-01 12:35:18,0.15,10.08,0.00,20.83,25.09,28.67,14.78,52.12,1018.63,2039.89,1327.01,1468.62,1637.00,600.18,601.80,41.17,0000 0000 0000 0000 000000
2015-12-01 12:40:19,0.05,10.08,0.00,20.86,25.13,28.69,14.82,52.15,1018.63,2039.34,1326.09,1467.93,1636.11,599.97,601.64,41.22,0000 0000 0000 0000 000000
2015-12-01 12:45:21,0.16,10.09,0.00,20.89,25.16,28.72,14.78,52.17,1018.60,2039.05,1325.20,1467.10,1635.29,600.16,601.60,41.27,0000 0000 0000 0000 000000
2015-12-01 12:50:22,0.18,10.09,0.00,20.92,25.20,28.74,14.72,52.03,1018.59,2039.00,1324.43,1466.33,1634.54,599.77,601.17,41.32,0000 0000 0000 0000 000000
2015-12-01 12:55:23,0.13,10.10,0.00,20.93,25.23,28.76,14.72,52.15,1018.58,2039.00,1323.65,1465.73,1633.71,599.85,601.23,41.37,0000 0000 0000 0000 000000